CDT,Max TemperatureF,Mean TemperatureF,Min TemperatureF,Max Dew PointF,MeanDew PointF,Min DewpointF,Max Humidity, Mean Humidity, Min Humidity, Max Sea Level PressureIn, Mean Sea Level PressureIn, Min Sea Level PressureIn, Max VisibilityMiles, Mean VisibilityMiles, Min VisibilityMiles, Max Wind SpeedMPH, Mean Wind SpeedMPH, Max Gust SpeedMPH,PrecipitationIn, CloudCover, Events, WindDirDegrees
2013-6-1,59,51,43,59,49,45,100,86,72,30.12,29.84,29.54,10,9,3,31,20,41,0.14,7,Rain,344
2013-6-2,66,52,37,47,43,37,100,72,44,30.16,30.10,30.00,10,10,6,9,4,15,0.00,1,,22
2013-6-3,75,62,48,50,47,44,86,64,41,29.99,29.85,29.75,10,10,10,28,13,39,0.01,2,Thunderstorm,128
2013-6-4,73,65,56,57,51,46,93,69,44,30.03,29.91,29.79,10,10,10,20,11,25,0.00,3,,260
2013-6-5,70,59,48,53,50,47,96,74,51,30.06,30.01,29.99,10,10,10,24,13,30,0.00,7,,318
2013-6-6,68,57,46,54,51,47,100,78,56,30.06,30.04,30.02,10,9,4,14,6,17,T,6,,357
2013-6-7,73,59,45,52,48,45,100,72,44,30.06,29.98,29.80,10,6,0,10,4,16,0.00,2,Fog,134
2013-6-8,62,59,55,61,57,49,100,82,64,29.79,29.73,29.69,10,7,2,17,9,23,1.14,8,Rain,133
2013-6-9,68,60,51,59,57,53,100,84,68,29.88,29.78,29.71,10,9,0,21,10,25,0.12,8,Fog-Rain,2
2013-6-10,80,65,50,62,55,51,100,73,45,29.87,29.81,29.74,10,5,0,17,6,23,0.00,0,Fog,155
2013-6-11,83,73,62,67,61,49,93,71,49,29.84,29.80,29.74,10,10,8,23,12,30,0.00,1,,75
2013-6-12,71,62,53,60,56,49,100,75,49,30.09,29.92,29.74,10,8,1,37,12,56,0.39,5,Rain-Thunderstorm,355
2013-6-13,77,63,49,55,53,49,100,72,43,30.14,30.07,29.96,10,10,5,13,5,17,0.00,1,,144
2013-6-14,85,74,63,69,61,55,87,73,58,29.95,29.81,29.73,10,10,10,23,9,33,T,1,Rain,163
2013-6-15,82,70,58,64,55,50,93,64,35,29.96,29.92,29.83,10,10,10,14,5,18,0.00,0,,342
2013-6-16,81,66,51,59,55,51,100,70,39,29.97,29.94,29.90,10,10,10,18,7,23,0.00,0,,251
2013-6-17,80,69,57,58,56,54,93,68,42,30.04,30.00,29.96,10,10,10,21,10,29,0.00,1,,324
2013-6-18,83,68,52,58,55,51,100,62,26,30.08,30.01,29.94,10,10,10,16,2,21,0.00,0,,21
2013-6-19,85,73,60,66,61,54,81,61,37,29.94,29.86,29.76,10,10,10,18,9,30,0.00,0,,144
2013-6-20,85,78,71,71,66,61,91,66,45,29.82,29.76,29.71,10,10,7,21,9,32,0.00,4,,159
2013-6-21,87,74,60,74,65,59,100,80,57,29.86,29.79,29.71,10,8,0,69,14,87,0.40,3,Fog-Rain-Thunderstorm,63
2013-6-22,81,72,63,68,65,62,100,81,62,29.92,29.84,29.64,10,10,2,37,9,48,0.72,5,Rain-Thunderstorm,114
2013-6-23,80,71,61,64,60,56,100,73,45,29.87,29.79,29.70,10,9,2,36,9,48,0.33,3,Rain-Thunderstorm,269
2013-6-24,82,72,61,69,63,59,97,74,51,29.86,29.77,29.69,10,10,7,15,9,23,0.02,1,Rain,153
2013-6-25,85,77,69,,,,,,,,,,,,,20,,26,0.18,,,-1
2013-6-26,90,78,65,69,64,60,93,66,38,29.85,29.79,29.72,10,10,10,15,7,20,0.00,0,,273
2013-6-27,89,77,65,66,62,54,93,63,32,29.96,29.92,29.86,10,10,10,18,10,37,0.01,1,Rain,313
2013-6-28,85,74,62,60,58,56,90,69,33,30.02,30.00,29.97,10,10,10,30,12,36,0.00,0,,300
2013-6-29,81,70,58,58,56,54,84,62,39,30.03,30.00,29.98,10,10,8,22,11,28,0.00,0,,13
2013-6-30,82,69,56,59,55,48,100,67,33,30.17,30.11,30.04,10,8,4,15,4,22,0.00,1,,48